TimePDT,TemperatureF,Dew PointF,Humidity,Sea Level PressureIn,VisibilityMPH,Wind Direction,Wind SpeedMPH,Gust SpeedMPH,PrecipitationIn,Events,Conditions,WindDirDegrees,DateUTC
12:00 AM,12.2,-9999,N/A,29.43,9.0,WSW,5.8,-,N/A,,Unknown,240,2012-10-15 07:00:00
1:00 AM,8.6,-9999,N/A,29.43,9.0,SSW,6.9,-,N/A,,Unknown,210,2012-10-15 08:00:00
1:53 AM,12.2,-9999,N/A,29.43,9.0,WSW,3.5,-,N/A,Snow,Light Snow,240,2012-10-15 08:53:00
2:00 AM,13,,,29.45,9,WSW,4.6,,,Snow,Light Snow,240,2012-10-15 09:00:00
2:00 AM,14.0,-9999,N/A,29.45,9.0,SW,4.6,-,N/A,Snow,Light Snow,230,2012-10-15 09:00:00
2:24 AM,14.0,-9999,N/A,29.42,9.0,SW,6.9,-,N/A,,Unknown,230,2012-10-15 09:24:00
3:00 AM,14.0,-9999,N/A,29.45,9.0,SW,4.6,-,N/A,,Unknown,230,2012-10-15 10:00:00
4:00 AM,14.0,-9999,N/A,29.46,9.0,SSW,4.6,-,N/A,,Unknown,210,2012-10-15 11:00:00
4:08 AM,14.0,-9999,N/A,29.44,9.0,SSW,5.8,-,N/A,Snow,Light Snow,200,2012-10-15 11:08:00
4:40 AM,15.8,-9999,N/A,29.44,9.0,SSW,6.9,-,N/A,,Unknown,210,2012-10-15 11:40:00
5:00 AM,16,,,29.45,9,SSW,6.9,,,,,210,2012-10-15 12:00:00
5:00 AM,15.8,-9999,N/A,29.45,9.0,SW,6.9,-,N/A,,Unknown,220,2012-10-15 12:00:00
5:33 AM,14.0,-9999,N/A,29.44,9.0,SSW,4.6,-,N/A,Snow,Light Snow,210,2012-10-15 12:33:00
5:44 AM,14.0,-9999,N/A,29.44,3.0,South,3.5,-,N/A,Snow,Light Snow,190,2012-10-15 12:44:00
5:59 AM,14.0,-9999,N/A,29.43,8.0,SSW,3.5,-,N/A,Snow,Light Snow,210,2012-10-15 12:59:00
6:00 AM,14.0,-9999,N/A,29.46,9.0,SSW,4.6,-,N/A,Snow,Light Snow,210,2012-10-15 13:00:00
6:07 AM,14.0,-9999,N/A,29.43,9.0,SSW,3.5,-,N/A,,Unknown,210,2012-10-15 13:07:00
7:00 AM,12.2,-9999,N/A,29.45,9.0,SW,4.6,-,N/A,,Unknown,220,2012-10-15 14:00:00
7:31 AM,12.2,-9999,N/A,29.44,9.0,South,3.5,-,N/A,,Unknown,180,2012-10-15 14:31:00
8:00 AM,13,,,29.46,9,Calm,Calm,,,,,,2012-10-15 15:00:00
8:00 AM,14.0,-9999,N/A,29.46,9.0,Calm,Calm,-,N/A,,Unknown,0,2012-10-15 15:00:00
9:00 AM,12.2,-9999,N/A,29.47,9.0,Calm,Calm,-,N/A,,Unknown,0,2012-10-15 16:00:00
10:00 AM,12.2,-9999,N/A,29.48,9.0,Calm,Calm,-,N/A,,Unknown,0,2012-10-15 17:00:00
10:01 AM,12.2,-9999,N/A,29.46,9.0,Calm,Calm,-,N/A,,Unknown,0,2012-10-15 17:01:00
11:00 AM,9,,,29.49,9,WSW,2.3,,,,,240,2012-10-15 18:00:00
11:00 AM,8.6,-9999,N/A,29.49,9.0,SW,4.6,-,N/A,,Unknown,230,2012-10-15 18:00:00
12:00 PM,10.4,-9999,N/A,29.50,9.0,NW,3.5,-,N/A,,Unknown,310,2012-10-15 19:00:00
1:00 PM,19.4,-9999,N/A,29.51,9.0,Calm,Calm,-,N/A,,Unknown,0,2012-10-15 20:00:00
2:00 PM,21,,,29.51,9,NNW,3.5,,,,,330,2012-10-15 21:00:00
2:00 PM,21.2,-9999,N/A,29.51,9.0,NNW,2.3,-,N/A,,Unknown,340,2012-10-15 21:00:00
2:27 PM,21.2,-9999,N/A,29.49,9.0,NNW,3.5,-,N/A,,Unknown,340,2012-10-15 21:27:00
2:57 PM,23.0,-9999,N/A,29.49,9.0,NNE,2.3,-,N/A,,Unknown,20,2012-10-15 21:57:00
3:00 PM,24.8,-9999,N/A,29.51,9.0,NNE,3.5,-,N/A,,Unknown,30,2012-10-15 22:00:00
4:00 PM,24.8,-9999,N/A,29.51,9.0,NE,3.5,-,N/A,,Unknown,40,2012-10-15 23:00:00
5:00 PM,27,,,29.50,9,North,8.1,,,,,10,2012-10-16 00:00:00
5:00 PM,26.6,-9999,N/A,29.50,9.0,North,8.1,-,N/A,,Unknown,10,2012-10-16 00:00:00
6:00 PM,26.6,-9999,N/A,29.50,9.0,North,8.1,-,N/A,,Unknown,10,2012-10-16 01:00:00
7:00 PM,26.6,-9999,N/A,29.49,9.0,NNE,9.2,-,N/A,,Unknown,30,2012-10-16 02:00:00
8:00 PM,27,,,29.49,9,North,11.5,,,,,10,2012-10-16 03:00:00
8:00 PM,26.6,-9999,N/A,29.49,9.0,North,11.5,-,N/A,,Unknown,360,2012-10-16 03:00:00
9:00 PM,28.4,-9999,N/A,29.48,9.0,North,12.7,18.4,N/A,,Unknown,10,2012-10-16 04:00:00
9:43 PM,28.4,-9999,N/A,29.46,8.0,NNE,10.4,-,N/A,Snow,Light Snow,20,2012-10-16 04:43:00
9:48 PM,28.4,-9999,N/A,29.46,3.0,NNE,9.2,-,N/A,Snow,Light Snow,20,2012-10-16 04:48:00
9:49 PM,28.4,-9999,N/A,29.46,2.5,NNE,9.2,-,N/A,Snow,Light Snow,20,2012-10-16 04:49:00
10:00 PM,30.2,-9999,N/A,29.48,2.0,NNE,10.4,-,N/A,Snow,Light Snow,20,2012-10-16 05:00:00
10:37 PM,30.2,-9999,N/A,29.46,1.4,North,10.4,-,N/A,Snow,Light Snow,10,2012-10-16 05:37:00
10:45 PM,30.2,-9999,N/A,29.46,1.0,NNE,10.4,-,N/A,Snow,Light Snow,20,2012-10-16 05:45:00
10:59 PM,30.2,-9999,N/A,29.46,1.0,NNE,11.5,-,N/A,Snow,Light Snow,20,2012-10-16 05:59:00
11:00 PM,29,,,29.47,1,NNE,10.4,,,,,20,2012-10-16 06:00:00
11:00 PM,30.2,-9999,N/A,29.47,1.0,NNE,11.5,-,N/A,Snow,Light Snow,20,2012-10-16 06:00:00
11:05 PM,30.2,-9999,N/A,29.46,0.6,NNE,10.4,-,N/A,Snow,Light Snow,30,2012-10-16 06:05:00
11:15 PM,30.2,-9999,N/A,29.46,1.0,NE,12.7,-,N/A,Snow,Light Snow,40,2012-10-16 06:15:00
11:45 PM,30.2,-9999,N/A,29.46,1.0,NE,10.4,-,N/A,Snow,Light Snow,40,2012-10-16 06:45:00
11:59 PM,30.2,-9999,N/A,29.46,1.4,NE,9.2,-,N/A,Snow,Light Snow,50,2012-10-16 06:59:00